Regional Weather Roundup
Issued by NWS

Home | Current Version | Previous Version | Text Only | Print | Product List | Glossary Off
Versions: 1 2 3 4 5 6 7 8 9 10 11 12 13 14 15 16 17 18 19 20 21 22 23 24 25 26 27 28 29 30 31 32 33 34 35 36 37 38 39 40 41 42 43 44 45 46 47 48 49 50

333
ASUS45 KTFX 140010
RWRMT
MONTANA REGIONAL WEATHER ROUNDUP
NATIONAL WEATHER SERVICE GREAT FALLS MT
500 PM MST WED DEC 13 2017

NOTE: "FAIR" INDICATES FEW OR NO CLOUDS BELOW 12000 FEET WITH NO
SIGNIFICANT WEATHER AND/OR OBSTRUCTIONS TO VISIBILITY.

MTZ001>007-043-140100-
WEST OF THE DIVIDE

CITY           SKY/WX    TMP DP  RH WIND       PRES   REMARKS
KALISPELL      FAIR      22  19  89 SW3       30.47R
MISSOULA       CLOUDY    30  25  81 NW6       30.44R WCI  24
BUTTE          CLOUDY    29  25  85 CALM      30.29R
MULLAN PASS    FOG       23  21  92 CALM      30.34R VSB 3/4
ANACONDA         N/A     28  27  93 CALM      30.32R
DEER LODGE       N/A     28  28 100 N9        30.36R WCI  20
EUREKA           N/A     23  18  80 MISG      30.51S
HAMILTON         N/A     28  27  93 CALM      30.41R
LIBBY            N/A     28  23  80 CALM      30.47R
PLAINS           N/A     31  24  75 CALM      30.46R
$$

MTZ008-052>055-140100-
SOUTHWEST MONTANA

CITY           SKY/WX    TMP DP  RH WIND       PRES   REMARKS
BOZEMAN        LGT SNOW  28  27  96 W3        30.30R FOG
DILLON         LGT SNOW  32  29  88 CALM      30.26R FOG
W YELLOWSTONE  CLOUDY    23  21  93 CALM      30.20R
ENNIS          LGT SNOW  30  30 100 NW8       30.29R WCI  23
THREE FORKS      N/A     28  26  92 CALM      30.26R
TWIN BRIDGES     N/A     32  26  78 CALM      30.22R
$$

MTZ009-010-012-014-046-048-049-054-140100-
EAST SLOPES AND CENTRAL MONTANA

CITY           SKY/WX    TMP DP  RH WIND       PRES   REMARKS
CUT BANK       CLOUDY    36  20  52 W10       30.28R WCI  28
GREAT FALLS    FAIR      28  24  85 SW6       30.28R WCI  22
MALMSTROM AFB  FAIR      29  27  92 SW8       30.29R WCI  21
HELENA         FOG       26  26 100 CALM      30.33R VSB<1/4
BOWMANS CRNR   FAIR      29  28  96 SW9       30.27R WCI  21
CHOTEAU          N/A     32  19  59 NW9       30.29S WCI  24
FAIRFIELD      FAIR      32  20  60 N12       30.27R WCI  23
POWER          FAIR      25  15  66 W3        30.26R
RAYNESFORD     FAIR      35  27  72 SW15      30.28R WCI  26
ULM            FAIR      30  27  88 SW5       30.29R
$$

MTZ011-013-016-021-045-047-050-051-140100-
NORTH CENTRAL MONTANA

CITY           SKY/WX    TMP DP  RH WIND       PRES   REMARKS
HAVRE          MOCLDY    36  24  62 SW14      30.22R WCI  27
LEWISTOWN      FAIR      30  25  81 W10       30.24R WCI  21
N BAR RANCH    FAIR      36  19  51 NW17G24   30.20S WCI  25
CHINOOK          N/A     36  25  64 W7        30.20R WCI  30
DENTON         FAIR      32  21  62 W15       30.21R WCI  22
GEYSER         FAIR      33  28  80 W20G25    30.24R WCI  21
GRASS RANGE    MOCLDY    37  22  56 W18       30.18R WCI  26
STANFORD       FAIR      30  25  80 W12       30.24R WCI  20
WINIFRED       FAIR      35  24  63 W12       30.22R WCI  27
$$

MTZ017>020-022>027-061-062-140100-
NORTHEAST MONTANA

CITY           SKY/WX    TMP DP  RH WIND       PRES   REMARKS
GLASGOW        FAIR      36  26  67 W10       30.11R WCI  28
GLENDIVE       MOCLDY    37  26  64 NW18      30.08R WCI  27
JORDAN           N/A     35  23  61 W9        30.13S WCI  28
SIDNEY         FAIR      36  27  69 W14       30.05S WCI  27
WOLF POINT     CLOUDY    40  27  59 W8        30.09S
MALTA          CLEAR     30  23  74 SW10      30.15S WCI  21
PLENTYWOOD       N/A     30  27  86 CALM      30.02S
POPLAR           N/A     39  27  60 W8        30.08R
SCOBEY           N/A     36  24  62 W10       30.02R WCI  28
$$

MTZ028>42-056>058-140100-
SOUTHCENTRAL AND SOUTHEAST MONTANA

CITY           SKY/WX    TMP DP  RH WIND       PRES   REMARKS
BAKER          FAIR      33  27  78 W10       30.07S WCI  25
BILLINGS       CLOUDY    40  24  53 NW10      30.19R
LIVINGSTON     LGT SNOW  33  32  96 SW5       30.26R FOG
MILES CITY     CLOUDY    40  24  53 NW9       30.12S
BIG TIMBER     CLOUDY    32  32 100 SW13      30.26  WCI  22
EKALAKA          N/A     33  23  67 W10       30.04R WCI  25
FORSYTH          N/A     39  21  48 W5        30.15R
LAUREL           N/A     39  30  70 W6        30.22R
$$

REGIONAL REPORTS...DAKOTAS

CITY           SKY/WX    TMP DP  RH WIND       PRES   REMARKS
WILLISTON      FAIR      35  25  66 W9        30.02S WCI  28
MINOT          MOCLDY    33  25  72 NW16      29.96R WCI  23
DICKINSON      FAIR      34  23  64 NW16      29.99R WCI  24
BEACH          CLOUDY    34  25  69 NW12      30.08R WCI  25
CROSBY         FAIR      28  27  93 W8        30.01R WCI  20
TIOGA          FAIR      28  28 100 W7        30.00S WCI  21
WATFORD CITY   FAIR      36  25  64 W8        30.02S WCI  29
BISMARCK       CLOUDY    35  26  69 NW8       29.99R WCI  29
GRAND FORKS    LGT SNOW  20  15  81 N15       29.96R WCI   6
FARGO          CLOUDY    23  18  81 N14       29.94R WCI  11
BUFFALO SD       N/A     37  25  61 NW16      29.98F WCI  28
RAPID CITY     FAIR      40  24  53 NW22G30   30.03S
$$

REGIONAL REPORTS...WYOMING/IDAHO/WASHINGTON

CITY           SKY/WX    TMP DP  RH WIND       PRES   REMARKS
GILLETTE       FAIR      37  18  46 NW14      30.11R WCI  28
SHERIDAN       CLOUDY    37  22  54 NW7       30.16R WCI  32
BUFFALO WY     MOCLDY    39  20  46 NW20G31   30.13R WCI  29
CODY           LGT SNOW  31  29  92 N3        30.21R FOG
YELLOWSTONE LA   N/A     22  20  92 CALM      30.18S
IDAHO FALLS    CLOUDY    27  22  81 SE3       30.26R
SALMON         CLOUDY    24  20  84 CALM      30.38R
BOISE          CLOUDY    25  21  85 N10       30.39R WCI  15
SPOKANE        CLOUDY    29  25  85 CALM      30.49R
$$

REGIONAL REPORTS...ALBERTA

CITY           SKY/WX    TMP DP  RH WIND       PRES   REMARKS
EDMONTON       CLEAR     36  27  69 W13       30.24R WCI  27
CALGARY        PTCLDY    36  25  64 NW6       30.29F WCI  31
LETHBRIDGE     MOCLDY    43  23  45 NW13      30.32R
MEDICINE HAT   PTCLDY    39  27  60 NW12      30.23R WCI  32
$$

REGIONAL REPORTS...SASKATCHEWAN

CITY           SKY/WX    TMP DP  RH WIND       PRES   REMARKS
SWIFT CURRENT  PTCLDY    32  25  74 W14G21    30.06S WCI  22
REGINA         MOCLDY    32  28  86 W9        29.98F WCI  24
SASKATOON      PTCLDY    34  28  80 W13       30.00R WCI  25
$$




USA.gov is the U.S. government's official web portal to all federal, state and local government web resources and services.